Location: Martin
(32.0982°N, 93.2193°W)
Time: 02:49:41
(UTC+00:00)

ARIANE 6 FM1 Upper Stage - Pass Details

Date: 24 September 2024
Orbit: 563 x 594 km, 62.0° (Epoch: 11 October)

Event Time Altitude Azimuth Distance (km) Brightness Sun altitude
Rises 00:46:34 0° 221° (SW) 2,756 6.7 -9.1°
Reaches altitude 10° 00:48:49 10° 226° (SW) 1,867 5.9 -9.6°
Maximum altitude 00:52:56 53° 304° (WNW) 709 3.6 -10.5°
Drops below altitude 10° 00:57:08 10° 22° (NNE) 1,898 5.2 -11.4°
Sets 00:59:27 0° 27° (NNE) 2,807 6.0 -11.8°
